Location: Castillon
(43.0896°N, 0.2156°E)
Time: 17:10:19
(UTC+00:00)

SL-16 R/B - Pass Details

Date: 16 June 2021
Orbit: 842 x 846 km, 71.0° (Epoch: 04 August)

Event Time Altitude Azimuth Distance (km) Brightness Sun altitude
Rises 21:39:17 0° 227° (SW) 3,388 5.2 -16.1°
Reaches altitude 10° 21:41:54 10° 236° (SW) 2,457 4.6 -16.3°
Maximum altitude 21:47:06 37° 303° (WNW) 1,282 3.7 -16.8°
Drops below altitude 10° 21:52:21 10° 11° (N) 2,472 5.3 -17.3°
Sets 21:55:00 0° 19° (NNE) 3,412 6.0 -17.6°
